When you browse on this site, cookies collect data to enhance your experience and personalize the content and advertising you see.
Visit our Privacy Policy to learn more. By continuing to use the site, you agree to this use of cookies and data.
  • In United Kingdom
  • List of Countries
  • For 7 days
  • Water Temperature
  • Weather Map
  • Weather Widgets
  • user-avatar
    Login

    Hourly Weather Lichtenfels

    Today, 15 September, Sunday

    Time Temperature Precipitation Wind Pressure Humidity
    00:00 +13°C° 0 mm 1 mps 744 mmHg 92%
    01:00 +12°C° 0 mm 0 mps 744 mmHg 93%
    02:00 +13°C° 0 mm 1 mps 744 mmHg 94%
    03:00 +13°C° 0 mm 1 mps 743 mmHg 94%
    04:00 +12°C° 0 mm 1 mps 743 mmHg 95%
    05:00 +13°C° 0 mm 1 mps 743 mmHg 94%
    06:00 +13°C° 0 mm 1 mps 742 mmHg 94%
    07:00 +14°C° 0 mm 1 mps 742 mmHg 94%
    08:00 +16°C° 0 mm 1 mps 742 mmHg 86%
    09:00 +20°C° 0 mm 1 mps 742 mmHg 78%
    10:00 +21°C° 0 mm 2 mps 742 mmHg 70%
    11:00 +23°C° 0 mm 2 mps 742 mmHg 64%
    12:00 +24°C° 0 mm 2 mps 742 mmHg 57%
    13:00 +26°C° 0 mm 3 mps 741 mmHg 51%
    14:00 +26°C° 0 mm 3 mps 741 mmHg 52%
    15:00 +26°C° 0 mm 3 mps 740 mmHg 52%
    16:00 +26°C° 0 mm 3 mps 740 mmHg 52%
    17:00 +23°C° 0 mm 2 mps 740 mmHg 60%
    18:00 +20°C° 0 mm 2 mps 740 mmHg 68%
    19:00 +19°C° 0 mm 1 mps 740 mmHg 76%
    20:00 +18°C° 0 mm 1 mps 740 mmHg 78%
    21:00 +16°C° 0 mm 1 mps 740 mmHg 79%
    22:00 +14°C° 0 mm 0 mps 740 mmHg 81%
    23:00 +13°C° 0 mm 0 mps 740 mmHg 82%

    Tomorrow, 16 September, Monday

    Time Temperature Precipitation Wind Pressure Humidity
    00:00 +13°C° 0 mm 0 mps 740 mmHg 82%
    01:00 +12°C° 0 mm 0 mps 740 mmHg 83%
    02:00 +12°C° 0 mm 0 mps 739 mmHg 83%
    03:00 +12°C° 0 mm 0 mps 739 mmHg 83%
    04:00 +12°C° 0 mm 0 mps 739 mmHg 83%
    05:00 +12°C° 0 mm 0 mps 739 mmHg 82%
    06:00 +12°C° 0 mm 0 mps 739 mmHg 81%
    07:00 +13°C° 0 mm 0 mps 739 mmHg 80%
    08:00 +15°C° 0 mm 0 mps 739 mmHg 72%
    09:00 +18°C° 0 mm 1 mps 739 mmHg 65%
    10:00 +20°C° 0 mm 1 mps 739 mmHg 58%
    11:00 +21°C° 0 mm 1 mps 738 mmHg 54%
    12:00 +21°C° 0 mm 2 mps 738 mmHg 50%
    13:00 +22°C° 0 mm 3 mps 738 mmHg 46%
    14:00 +22°C° 0 mm 3 mps 737 mmHg 48%
    15:00 +22°C° 0 mm 3 mps 737 mmHg 50%
    16:00 +21°C° 0 mm 3 mps 737 mmHg 53%
    17:00 +20°C° 0 mm 2 mps 737 mmHg 58%
    18:00 +19°C° 0 mm 2 mps 737 mmHg 64%
    19:00 +18°C° 0 mm 2 mps 736 mmHg 70%
    20:00 +18°C° 0 mm 1 mps 737 mmHg 76%
    21:00 +18°C° 0 mm 1 mps 737 mmHg 82%
    22:00 +16°C° 0 mm 1 mps 737 mmHg 87%
    23:00 +16°C° 0 mm 1 mps 737 mmHg 89%

    Day after tomorrow, 17 September, Tuesday

    Time Temperature Precipitation Wind Pressure Humidity
    00:00 +16°C° 0 mm 1 mps 737 mmHg 90%
    01:00 +15°C° 0 mm 1 mps 738 mmHg 92%
    02:00 +15°C° 0 mm 1 mps 738 mmHg 92%
    03:00 +15°C° 0 mm 1 mps 738 mmHg 91%
    04:00 +15°C° 0 mm 2 mps 738 mmHg 91%
    05:00 +14°C° 0 mm 2 mps 738 mmHg 90%
    06:00 +13°C° 0 mm 2 mps 738 mmHg 89%
    07:00 +12°C° 0 mm 2 mps 738 mmHg 88%
    08:00 +13°C° 0 mm 2 mps 738 mmHg 78%
    09:00 +14°C° 0 mm 2 mps 739 mmHg 69%
    10:00 +15°C° 0 mm 2 mps 739 mmHg 59%
    11:00 +16°C° 0 mm 3 mps 739 mmHg 55%
    12:00 +17°C° 0 mm 3 mps 739 mmHg 51%
    13:00 +18°C° 0 mm 3 mps 738 mmHg 47%
    14:00 +17°C° 0 mm 4 mps 738 mmHg 48%
    15:00 +17°C° 0 mm 4 mps 738 mmHg 49%
    16:00 +17°C° 0 mm 4 mps 738 mmHg 50%
    17:00 +16°C° 0 mm 3 mps 738 mmHg 56%
    18:00 +13°C° 0 mm 3 mps 738 mmHg 63%
    19:00 +12°C° 0 mm 2 mps 738 mmHg 69%
    20:00 +10°C° 0 mm 2 mps 739 mmHg 74%
    21:00 +9°C° 0 mm 2 mps 739 mmHg 79%
    22:00 +8°C° 0 mm 2 mps 740 mmHg 84%
    23:00 +9°C° 0 mm 1 mps 740 mmHg 86%

    18 September, Wednesday

    Time Temperature Precipitation Wind Pressure Humidity
    00:00 +8°C° 0 mm 1 mps 740 mmHg 88%
    01:00 +7°C° 0 mm 1 mps 740 mmHg 89%
    02:00 +7°C° 0 mm 1 mps 741 mmHg 91%
    03:00 +6°C° 0 mm 1 mps 741 mmHg 92%
    04:00 +6°C° 0 mm 1 mps 741 mmHg 94%
    05:00 +6°C° 0 mm 1 mps 741 mmHg 91%
    06:00 +5°C° 0 mm 0 mps 741 mmHg 89%
    07:00 +6°C° 0 mm 0 mps 742 mmHg 87%
    08:00 +9°C° 0 mm 1 mps 742 mmHg 77%
    09:00 +11°C° 0 mm 1 mps 742 mmHg 66%
    10:00 +13°C° 0 mm 2 mps 743 mmHg 56%
    11:00 +14°C° 0 mm 2 mps 742 mmHg 53%
    12:00 +14°C° 0 mm 2 mps 742 mmHg 51%
    13:00 +15°C° 0 mm 2 mps 742 mmHg 48%
    14:00 +15°C° 0 mm 2 mps 741 mmHg 48%
    15:00 +14°C° 0 mm 2 mps 741 mmHg 49%
    16:00 +13°C° 0 mm 3 mps 741 mmHg 49%
    17:00 +13°C° 0 mm 2 mps 741 mmHg 55%
    18:00 +11°C° 0 mm 1 mps 741 mmHg 62%
    19:00 +9°C° 0 mm 1 mps 742 mmHg 68%
    20:00 +8°C° 0 mm 1 mps 742 mmHg 72%
    21:00 +8°C° 0 mm 1 mps 743 mmHg 76%
    22:00 +7°C° 0 mm 1 mps 743 mmHg 80%
    23:00 +7°C° 0 mm 1 mps 743 mmHg 84%

    19 September, Thursday

    Time Temperature Precipitation Wind Pressure Humidity
    00:00 +7°C° 0 mm 1 mps 743 mmHg 87%
    01:00 +6°C° 0 mm 1 mps 743 mmHg 90%
    02:00 +6°C° 0 mm 1 mps 743 mmHg 91%
    03:00 +6°C° 0 mm 1 mps 743 mmHg 93%
    04:00 +6°C° 0 mm 1 mps 743 mmHg 94%
    05:00 +6°C° 0 mm 1 mps 744 mmHg 92%
    06:00 +6°C° 0 mm 1 mps 744 mmHg 91%
    07:00 +7°C° 0 mm 1 mps 744 mmHg 89%
    08:00 +9°C° 0 mm 1 mps 744 mmHg 78%
    09:00 +10°C° 0 mm 2 mps 745 mmHg 67%
    10:00 +13°C° 0 mm 2 mps 745 mmHg 56%
    11:00 +14°C° 0 mm 2 mps 745 mmHg 53%
    12:00 +14°C° 0 mm 2 mps 745 mmHg 50%
    13:00 +14°C° 0 mm 3 mps 745 mmHg 47%
    14:00 +14°C° 0 mm 3 mps 745 mmHg 48%
    15:00 +14°C° 0 mm 3 mps 745 mmHg 49%
    16:00 +13°C° 0 mm 3 mps 745 mmHg 50%
    17:00 +13°C° 0 mm 2 mps 745 mmHg 58%
    18:00 +10°C° 0 mm 2 mps 745 mmHg 65%
    19:00 +9°C° 0 mm 1 mps 745 mmHg 73%
    20:00 +8°C° 0 mm 1 mps 746 mmHg 77%
    21:00 +8°C° 0 mm 1 mps 746 mmHg 80%
    22:00 +7°C° 0 mm 1 mps 746 mmHg 84%
    23:00 +7°C° 0 mm 1 mps 746 mmHg 86%

    20 September, Friday

    Time Temperature Precipitation Wind Pressure Humidity
    00:00 +5°C° 0 mm 0 mps 747 mmHg 88%
    01:00 +5°C° 0 mm 0 mps 747 mmHg 90%
    02:00 +5°C° 0 mm 0 mps 746 mmHg 91%
    03:00 +5°C° 0 mm 0 mps 746 mmHg 91%
    04:00 +5°C° 0 mm 0 mps 746 mmHg 92%
    05:00 +5°C° 0 mm 0 mps 746 mmHg 90%
    06:00 +6°C° 0 mm 0 mps 746 mmHg 88%
    07:00 +6°C° 0 mm 0 mps 746 mmHg 87%
    08:00 +8°C° 0 mm 0 mps 747 mmHg 77%
    09:00 +11°C° 0 mm 0 mps 747 mmHg 67%
    10:00 +13°C° 0 mm 0 mps 747 mmHg 58%
    11:00 +14°C° 0 mm 0 mps 747 mmHg 53%
    12:00 +16°C° 0 mm 0 mps 747 mmHg 47%
    13:00 +17°C° 0 mm 0 mps 746 mmHg 42%
    14:00 +19°C° 0 mm 1 mps 746 mmHg 42%
    15:00 +19°C° 0 mm 1 mps 745 mmHg 43%
    16:00 +18°C° 0 mm 1 mps 745 mmHg 43%
    17:00 +15°C° 0 mm 1 mps 745 mmHg 51%
    18:00 +13°C° 0 mm 1 mps 745 mmHg 60%
    19:00 +11°C° 0 mm 1 mps 745 mmHg 68%
    20:00 +10°C° 0 mm 1 mps 745 mmHg 71%
    21:00 +9°C° 0 mm 1 mps 745 mmHg 73%
    22:00 +9°C° 0 mm 1 mps 745 mmHg 76%
    23:00 +8°C° 0 mm 1 mps 745 mmHg 77%
    Show more